Location: Omaha
(41.2590°N, 95.9380°W)
Time: 06:18:29
(UTC-05:00)

Envisat - Pass Details

Date: 12 October 2017
Orbit: 764 x 766 km, 98.2° (Epoch: 24 October)

Event Time Altitude Azimuth Distance (km) Brightness Sun altitude
Exits shadow 20:33:57 39° 63° (ENE) 1,147 3.5 -20.9°
Drops below altitude 10° 20:38:25 10° 3° (N) 2,310 5.5 -21.7°
Sets 20:40:51 0° 355° (N) 3,241 6.4 -22.1°
